This demonstration page uses our WeatherBlox Daily Observations layout. Learn more.

Left ArrowRight Arrow

Hourly Observations for May 29, 2015

Temp ( °F °C ) Dew Point ( °F °C ) Humidity (%) Winds ( mph kmh ) Pressure ( in mb ) Visibility ( mi km ) Precip ( " mm )
12:53 am 00:53 Partly Cloudy 62 16.7 59 15 90 90 Calm 29.90 1012 10 16 0.00 0.00
1:53 am 01:53 Cloudy with Light Rain 62 16.7 59 15 90 90 NW 6 9 29.87 1012 10 16 0.01 0.25
2:53 am 02:53 Cloudy with Light Rain 61 16.1 59 15 93 93 NNW 3 6 29.85 1011 10 16 0.01 0.25
3:53 am 03:53 Mostly Cloudy 61 16.1 57 13.9 87 87 WNW 9 15 29.87 1011 10 16 0.00 0.03
4:53 am 04:53 Clear 59 15 56 13.3 90 90 W 8 13 29.86 1011 10 16 0.00 0.00
5:53 am 05:53 Clear 58 14.4 56 13.3 93 93 Calm 29.89 1012 10 16 0.00 0.00
6:53 am 06:53 Sunny 57 13.9 55 12.8 93 93 SW 7 11 29.92 1013 10 16 0.00 0.00
7:53 am 07:53 Sunny 60 15.6 56 13.3 86 86 WSW 6 9 29.92 1013 10 16 0.00 0.00
8:53 am 08:53 Sunny 63 17.2 58 14.4 84 84 NW 9 15 29.93 1014 10 16 0.00 0.00
9:53 am 09:53 Sunny 66 18.9 58 14.4 75 75 NNW 9 15 29.93 1014 10 16 0.00 0.00
10:53 am 10:53 Sunny 67 19.4 59 15 76 76 NW 10 17 29.93 1014 10 16 0.00 0.00
11:53 am 11:53 Mostly Sunny 71 21.7 60 15.6 68 68 NNW 10 17 29.94 1014 10 16 0.00 0.00
12:53 pm 12:53 Partly Cloudy 73 22.8 59 15 62 62 NNW 9 15 29.94 1014 10 16 0.00 0.00
1:53 pm 13:53 Partly Cloudy 76 24.4 57 13.9 52 52 NW 12 19 29.94 1014 10 16 0.00 0.00
2:53 pm 14:53 Partly Cloudy 76 24.4 58 14.4 54 54 NNW 13 20 29.94 1014 10 16 0.00 0.00
3:53 pm 15:53 Mostly Cloudy 76 24.4 60 15.6 58 58 N 17 28 29.93 1014 10 16 0.00 0.00
4:53 pm 16:53 Mostly Cloudy 75 23.9 59 15 58 58 N 22 35 29.93 1014 10 16 0.00 0.00
5:53 pm 17:53 Mostly Sunny 69 20.6 56 13.3 63 63 NNW 25 41 29.97 1015 10 16 0.00 0.00
6:53 pm 18:53 Mostly Cloudy 61 16.1 52 11.1 72 72 N 28 44 30.03 1017 10 16 0.00 0.00
7:53 pm 19:53 Cloudy 58 14.4 50 10 75 75 N 23 37 30.07 1018 10 16 0.00 0.00
8:53 pm 20:53 Cloudy 56 13.3 48 8.9 75 75 N 23 37 30.09 1019 10 16 0.00 0.00
9:53 pm 21:53 Cloudy 54 12.2 47 8.3 77 77 N 25 41 30.10 1019 10 16 0.00 0.00
10:53 pm 22:53 Cloudy 52 11.1 46 7.8 80 80 N 23 37 30.15 1021 10 16 0.00 0.00
11:08 pm 23:08 Cloudy 52 11 46 8 82 82 N 23 37 30.18 1022 10 16 0.00 0.00
11:53 pm 23:53 Cloudy 52 11.1 45 7.2 77 77 N 23 37 30.16 1021 10 16 0.00 0.00

Powered by AerisWeather